Location: *
(51.0333°S, 178.4667°E)
Time: 09:09:56
(UTC+00:00)

STARLINK-36 - Pass Details

Date: 15 November 2019
Orbit: 529 x 530 km, 53.0° (Epoch: 08 December)

Event Time Altitude Azimuth Distance (km) Brightness Sun altitude
Rises 10:10:15 0° 258° (WSW) 2,677 7.7 -17.1°
Reaches altitude 10° 10:12:29 10° 256° (WSW) 1,787 6.7 -17.2°
Maximum altitude 10:16:32 70° 171° (S) 570 3.8 -17.5°
Enters shadow 10:19:48 15° 88° (E) 1,483 5.6 -17.7°
